Jilin-1 Kuanfu-02B 04

operational
NORAD ID: 61192 Int'l Des: 2024-169 Owner: CGSTL Country: CN Constellation: jilin-1
LEOCIRCULARRETROGRADESSO

About Jilin-1 Kuanfu-02B 04

Description loading...

Live Position

Loading 3D Globe...

Upcoming Passes

Altitude History

Altitude vs Time

uPlot chart will show altitude changes over time

Two-Line Element Set

1 61192U 24169D 25298.46508742 .00008508 00000-0 52316-3 0 9994
2 61192 97.5687 25.7160 0002819 275.4426 84.6482 15.10287418 60425
Epoch: Oct 25, 2025 • Age: 13 hours

Current Status

Altitude 550.6 km
Velocity 7.59 km/s
Sub-Earth Point 80.05°N, 144.17°W
Launch Date Sep 20, 2024
Age 1 years
Type other

Technical Details

Classification Payload
Mass 230.00 kg
Dry Mass 200.00 kg
Total Mass 230.00 kg
Length 0.50 m
Diameter 0.50 m
Span 1.50 m
Shape Box + 2 pan
Manufacturer HARB/CGSTL
Bus Type JL-1
Phase Status In Orbit
Owner/State CGSTL/CN

Large Constellations

Loading constellations...